Volver al catálogo

QIANFAN-31

ActivoComunicacionesPO
NORAD 61564·PAYLOAD·🇨🇳 China

Lanzado Oct 15, 2024 desde Taiyuan Satellite Launch Center

Loading…

Próximos Pases (próximas 24 horas)

TLE

ActualizadoSource: Space-Track

Época: Sep 14, 2026, 13:01 UTC

1 61564U 24185N   26257.54293555  .00000142  00000-0  17965-3 0  9990
2 61564  88.9799  51.7961 0005530 313.7975  46.2722 13.58063019105590

Sigue QIANFAN-31 en tiempo real con AllMySat

Download on the App Store